Home   Weather   McAllen   Past weeks

Flag for USA Past Weather in McAllen, Texas, USA — Yesterday and Last 2 Weeks

Now
86 °F

Partly cloudy.


Feels Like: 97 °F
Forecast: 81 / 100 °F
Wind: 20 mph from Southeast

Location: Miller International Airport

Current Time: Aug 17, 2017 at 1:19:50 am

Latest Report: Aug 16, 2017 at 11:53 pm


Visibility: 10 mi

Pressure: 29.96 "Hg

Humidity: 75%

Dew Point: 77 °F

Location of McAllenLocation

Past Weather in McAllen — Graph

°F

McAllen Temperature Yesterday

Maximum temperature yesterday: 103 °F (at 3:53 pm)
Minimum temperature yesterday: 81 °F (at 5:53 am)
Average temperature yesterday: 90 °F

High & Low Weather Summary for the Past Weeks

 TemperatureHumidityPressure
High104 °F (Aug 5, 2:53 pm)94% (Aug 10, 4:53 pm)30.11 "Hg (Aug 10, 4:53 pm)
Low77 °F (Aug 10, 12:37 pm)27% (Aug 8, 4:53 pm)29.74 "Hg (Aug 14, 6:53 pm)
Average88 °F66%29.91 "Hg
* Reported Aug 1 11:53 pm — Aug 16 11:53 pm, McAllen. Weather by CustomWeather, © 2017

Note: Actual official high and low records may vary slightly from our data, if they occured in-between our weather recording intervals... More about our weather records

Advertising

McAllen Weather History for the Previous 24 Hours

Scroll right to see more
 ConditionsComfort  
Time TempWeatherWind HumidityBarometerVisibility
11:53 pm
Wed, Aug 16
86 °FPartly cloudy.20 mph75%29.96 "Hg10 mi
10:53 pm86 °FPassing clouds.20 mph75%29.95 "Hg10 mi
9:53 pm87 °FClear.17 mph67%29.92 "Hg10 mi
8:53 pm89 °FClear.21 mph63%29.89 "Hg10 mi
7:53 pm91 °FSunny.18 mph57%29.86 "Hg10 mi
6:53 pm95 °FSunny.22 mph51%29.84 "Hg10 mi
5:53 pm99 °FSunny.21 mph42%29.83 "Hg10 mi
4:53 pm101 °FScattered clouds.18 mph39%29.83 "Hg10 mi
3:53 pm103 °FPassing clouds.20 mph37%29.83 "Hg10 mi
2:53 pm101 °FScattered clouds.21 mph39%29.86 "Hg10 mi
1:53 pm100 °FPassing clouds.15 mph39%29.88 "Hg10 mi
12:53 pm98 °FScattered clouds.16 mph45%29.90 "Hg10 mi
11:53 am97 °FPassing clouds.16 mph46%29.92 "Hg10 mi
10:53 am94 °FScattered clouds.22 mph52%29.92 "Hg10 mi
10:00 am89 °FPartly sunny.18 mph65%29.92 "Hg10 mi
8:58 am85 °FScattered clouds.16 mph77%29.91 "Hg8 mi
7:53 am82 °FSunny.10 mph82%29.89 "Hg7 mi
6:53 am81 °FClear.9 mph85%29.88 "Hg8 mi
5:53 am81 °FPassing clouds.9 mph85%29.88 "Hg8 mi
4:53 am82 °FClear.10 mph82%29.88 "Hg9 mi
3:53 am83 °FClear.15 mph79%29.87 "Hg9 mi
2:53 am83 °FPassing clouds.10 mph79%29.87 "Hg10 mi
1:53 am84 °FPassing clouds.17 mph80%29.88 "Hg10 mi
Weather by CustomWeather, © 2017

See weather overviewHow to use our weather pages